Starlink 30349

operational
NORAD ID: 57713 Int'l Des: 2023-129 Owner: SPXS Country: US Constellation: starlink
LEOCIRCULAR

Starlink 30349について

説明を読み込み中...

リアルタイム位置

3D地球を読み込み中...

次回通過

高度履歴

Altitude vs Time

uPlot chart will show altitude changes over time

軌道要素

1 57713U 23129R 26037.10180727 .00001234 00000-0 10639-3 0 9996
2 57713 43.0038 291.8601 0000982 275.1455 84.9275 15.02539127135760
Epoch: Feb 6, 2026 • Age: 9 hours

現在のステータス

高度 569.1 km
速度 7.58 km/s
衛星直下点 -36.29°S, 147.51°W
打ち上げ日 Aug 27, 2023
運用期間 2.4 years
タイプ internet

技術仕様

分類 Payload
質量 730.00 kg
乾燥質量 700.00 kg
総質量 730.00 kg
長さ 0.30 m
直径 4.10 m
スパン 29.00 m
形状 Box + pan
製造者 SPXS
バスタイプ Starlink V2M
フェーズステータス In Orbit
所有者/国 SPXS/US

大規模コンステレーション

Loading constellations...